Simultaneous Nadir Overpasses (SNOs) Predictions

Prediction of SNOs near equator between AQUA and NPP Satellite Orbit:

Table of predicted SNOs near equator for the next 14.0 days since TLE Epoch: 4/23/2016
Index Date (AQUA) Time (AQUA) AQUA Lat,Lon Date (NPP) Time (NPP) NPP Lat,Lon Distance(km) Time Diff (sec)
1 04/24/2016 16:26:11 3.78, -43.15 04/24/2016 16:16:51 3.74, -43.25 11.36 560
2 04/24/2016 17:14:18 0.76, 125.47 04/24/2016 17:06:14 0.83, 125.11 41.32 484
3 04/24/2016 18:02:33 -5.35, -65.93 04/24/2016 17:55:44 -5.48, -66.56 70.78 409
4 04/24/2016 18:50:40 9.89, 102.70 04/24/2016 18:45:07 10.06, 101.81 99.57 333
5 04/27/2016 07:57:44 -20.53, -98.58 04/27/2016 07:47:44 -20.55, -98.68 10.65 600
6 04/27/2016 08:42:08 2.02, 73.11 04/27/2016 08:33:17 2.00, 72.91 22.49 531
7 04/27/2016 09:30:16 2.46,-118.28 04/27/2016 09:22:40 2.58,-118.74 52.52 456
8 04/27/2016 10:18:30 -7.10, 50.33 04/27/2016 10:12:10 -7.23, 49.60 81.69 380
9 04/30/2016 00:09:50 -4.92, 20.76 04/30/2016 00:00:12 -4.90, 20.73 4.10 578
10 04/30/2016 00:58:05 0.34,-170.64 04/30/2016 00:49:42 0.25,-170.94 33.92 503
11 04/30/2016 01:46:12 4.21, -2.02 04/30/2016 01:39:05 4.33, -2.58 63.60 427
12 04/30/2016 02:34:27 -8.78, 166.58 04/30/2016 02:28:35 -8.97, 165.76 92.44 352
13 05/02/2016 16:25:46 -3.12, 137.03 05/02/2016 16:16:37 -3.10, 136.90 15.15 549
14 05/02/2016 17:14:02 -1.39, -54.39 05/02/2016 17:06:08 -1.49, -54.78 45.18 474
15 05/02/2016 18:02:08 6.00, 114.25 05/02/2016 17:55:30 6.13, 113.59 74.63
